Location: Unspecified
(0.0000°N, 0.0000°E)
Time: 23:06:03
(UTC+02:00)

Amateur Radio Satellites - All Passes

Search period start: 22 October 2017 22:36
Search period end: 23 October 2017 22:36
Location: Unspecified, 0.0000°N, 0.0000°E

Satellite Date Start Highest point End Downlink Frequencies (MHz)
Time Altitude Azimuth
SRMSAT 22 Oct 22:37:38 22:38:29 10° 184° (S) 22:39:19 437.500
DELFI C3 22 Oct 22:52:51 22:56:29 37° 79° (ENE) 23:00:05 145.870
ZACube-1 22 Oct 22:59:37 23:01:43 13° 258° (WSW) 23:03:51 437.345
EO-88 22 Oct 23:01:42 23:04:27 20° 79° (E) 23:07:11 145.990 - 145.960
RS-15 22 Oct 23:06:25 23:16:02 29° 111° (ESE) 23:25:50 29.354- 29.394
UNISAT 6 22 Oct 23:15:41 23:19:58 52° 101° (E) 23:24:11 437.425
Max Valier Satellite 22 Oct 23:16:10 23:19:51 58° 78° (ENE) 23:23:30 145.860
YUBILEINY 22 Oct 23:16:20 23:24:17 39° 267° (W) 23:32:18 435.215
AO-85 22 Oct 23:29:12 23:31:57 15° 69° (ENE) 23:34:46 145.980
TIGRISAT 22 Oct 23:29:41 23:34:05 75° 103° (ESE) 23:38:24 435.000
FO-29 22 Oct 23:34:04 23:40:27 29° 283° (WNW) 23:47:00 435.910
PRISM 22 Oct 23:36:00 23:39:42 32° 102° (ESE) 23:43:26 437.425
JUGNU 22 Oct 23:46:14 23:51:09 26° 163° (SSE) 23:56:04 437.505
BEESAT 2 22 Oct 23:59:14 00:03:02 47° 68° (ENE) 00:06:46 435.950
BEESAT 3 23 Oct 00:11:03 00:13:45 18° 248° (WSW) 00:16:27 437.485
ESTCUBE 1 23 Oct 00:19:26 00:22:19 17° 78° (ENE) 00:25:10 437.505/2401.250
SRMSAT 23 Oct 00:27:00 00:28:52 11° 173° (S) 00:30:44 437.500
EO-88 23 Oct 00:37:06 00:37:49 10° 258° (WSW) 00:38:31 145.990 - 145.960
AIST 2D 23 Oct 01:00:07 01:03:33 70° 281° (W) 01:07:02 435.315
AO-85 23 Oct 01:07:26 01:12:08 36° 248° (WSW) 01:17:01 145.980
LO-87 23 Oct 01:15:54 01:19:08 33° 259° (W) 01:22:22 145.935 - 145.965
RS-15 23 Oct 01:16:37 01:28:01 53° 291° (WNW) 01:39:52 29.354- 29.394
EO-79 23 Oct 01:17:23 01:21:25 44° 102° (ESE) 01:25:26 145.935-145.965
POLYITAN 1 23 Oct 01:22:47 01:26:52 54° 102° (ESE) 01:30:59 437.675
NO-84 23 Oct 01:24:10 01:28:06 80° 121° (ESE) 01:32:16 435.350 FM
VELOX 1 23 Oct 01:34:10 01:37:07 18° 78° (ENE) 01:40:03 145.980
JUGNU 23 Oct 01:34:25 01:40:23 66° 159° (SSE) 01:46:20 437.505
QB50P2 23 Oct 01:43:11 01:47:20 62° 282° (WNW) 01:51:30 145.880/145.840
NANOSAT C BR1 23 Oct 01:43:41 01:47:53 83° 279° (W) 01:52:05 145.865
BUGSAT 1 23 Oct 01:52:07 01:54:40 16° 102° (ESE) 01:57:12 437.445
DUCHIFAT 1 23 Oct 01:52:58 01:57:08 72° 281° (W) 02:01:17 145.980
ESTCUBE 1 23 Oct 01:55:22 01:58:50 22° 258° (WSW) 02:02:17 437.505/2401.250
SPROUT 23 Oct 02:04:09 02:08:24 85° 82° (E) 02:12:41 437.525
SRMSAT 23 Oct 02:14:28 02:18:54 21° 164° (SSE) 02:23:18 437.500
M-CUBED/EXP-1 PRIME 23 Oct 02:27:56 02:30:29 16° 108° (ESE) 02:33:09 437.505
DX 1 23 Oct 02:32:04 02:35:04 18° 78° (ENE) 02:38:03 434.975-435.025
Oscar 19 23 Oct 02:49:59 02:54:52 45° 103° (ESE) 02:59:45 437.125/150
UKube-1 23 Oct 02:50:35 02:53:34 18° 78° (ENE) 02:56:32 .
50 SAT 23 Oct 02:53:22 02:56:30 49° 79° (E) 02:59:38 437.505
VELOX 1 23 Oct 03:10:10 03:13:16 19° 258° (WSW) 03:16:22 145.980
JUGNU 23 Oct 03:23:45 03:29:28 45° 340° (NNW) 03:35:09 437.505
BUGSAT 1 23 Oct 03:26:55 03:29:45 18° 282° (WNW) 03:32:34 437.445
Gurwin Techsat 1B 23 Oct 03:42:08 03:47:23 67° 282° (WNW) 03:52:40 435.225
M-CUBED/EXP-1 PRIME 23 Oct 04:01:23 04:04:35 22° 284° (WNW) 04:07:56 437.505
SRMSAT 23 Oct 04:02:35 04:08:23 51° 159° (SSE) 04:14:07 437.500
MOZHAYETS 4 23 Oct 04:05:24 04:08:30 18° 78° (ENE) 04:11:34
DX 1 23 Oct 04:08:03 04:10:58 18° 257° (WSW) 04:13:54 434.975-435.025
UKube-1 23 Oct 04:26:26 04:29:18 18° 257° (WSW) 04:32:10 .
AO-7 23 Oct 04:27:58 04:35:33 40° 106° (ESE) 04:43:09 .
ITUPSAT 1 23 Oct 04:58:31 05:03:19 79° 78° (ENE) 05:08:07 437.325
ITAMSAT 1 23 Oct 05:07:27 05:12:35 61° 103° (ESE) 05:17:43 435.822/435.867
BEESAT 23 Oct 05:12:13 05:16:58 66° 257° (WSW) 05:21:42 436.000
JUGNU 23 Oct 05:14:42 05:18:50 19° 345° (NNW) 05:22:57 437.505
MOZHAYETS 4 23 Oct 05:41:47 05:45:22 22° 258° (WSW) 05:48:56
SRMSAT 23 Oct 05:51:46 05:57:35 57° 339° (NNW) 06:03:23 437.500
CUBESAT XI-V 23 Oct 05:59:15 06:03:57 89° 258° (WSW) 06:08:35 437.345
SO-50 23 Oct 06:18:53 06:23:21 60° 292° (WNW) 06:27:45 436.795
AO-7 23 Oct 06:21:13 06:27:56 28° 287° (WNW) 06:34:43 .
DOVE 4 23 Oct 06:25:22 06:30:24 45° 101° (ESE) 06:35:26 437.250
PCSat 23 Oct 06:40:00 06:42:21 13° 110° (ESE) 06:44:42 145.827
KKS-1 23 Oct 06:47:50 06:52:15 84° 76° (ENE) 06:56:39 437.445
LilacSat-2 23 Oct 07:02:25 07:05:03 18° 102° (ESE) 07:07:41 437.200
XW-2D 23 Oct 07:05:46 07:08:29 19° 102° (ESE) 07:11:14 145.860 - 145.880
JUGNU 23 Oct 07:07:37 07:08:45 10° 354° (N) 07:09:52 437.505
STARS 23 Oct 07:12:40 07:16:57 55° 78° (ENE) 07:21:14 437.465
XW-2B 23 Oct 07:18:45 07:22:01 29° 101° (E) 07:25:20 145.730 - 145.750
nSIGHT-1 23 Oct 07:20:49 07:23:49 37° 126° (SE) 07:26:48 .
CUTE-I 23 Oct 07:36:25 07:41:32 46° 103° (ESE) 07:46:39 437.470
XW-2C 23 Oct 07:41:42 07:45:24 77° 101° (E) 07:49:10 145.795 - 145.815
SRMSAT 23 Oct 07:42:25 07:46:59 23° 343° (NNW) 07:51:32 437.500
CUTE 1.7 + AOD 2 23 Oct 07:59:34 08:02:20 17° 102° (ESE) 08:05:07 437.475
ISS 23 Oct 08:00:42 08:03:55 56° 305° (NW) 08:07:05 437.550
STRAND 1 23 Oct 08:00:53 08:02:24 11° 77° (ENE) 08:03:55 437.568
DOVE 4 23 Oct 08:06:05 08:07:45 11° 282° (WNW) 08:09:27 437.250
KAITUO 1B 23 Oct 08:17:25 08:20:52 39° 281° (W) 08:24:22 145.475/437.950
PCSat 23 Oct 08:20:26 08:25:29 41° 289° (WNW) 08:30:32 145.827
O/OREOS (USA 219) 23 Oct 08:20:43 08:25:12 61° 76° (ENE) 08:29:39 437.305
XW-2F 23 Oct 08:24:43 08:27:39 22° 281° (W) 08:30:37 145.980 - 146.000
NUDT-PHONESAT 23 Oct 08:27:02 08:30:12 28° 281° (W) 08:33:24 437.300
LilacSat-2 23 Oct 08:37:21 08:39:03 13° 281° (W) 08:40:45 437.200
XW-2D 23 Oct 08:41:02 08:42:24 12° 281° (W) 08:43:45 145.860 - 145.880
HO-68 23 Oct 08:57:10 09:04:21 83° 285° (WNW) 09:11:34 435.675
JUGNU 23 Oct 08:58:31 08:58:56 10° 5° (N) 08:59:22 437.505
AO-73 23 Oct 09:09:31 09:11:36 14° 102° (ESE) 09:13:42 145.935
XW-2A 23 Oct 09:14:59 09:18:15 60° 101° (E) 09:21:32 145.665 - 145.685
CUTE-I 23 Oct 09:19:46 09:21:16 11° 283° (WNW) 09:22:47 437.470
FO-29 23 Oct 09:27:01 09:28:33 11° 77° (ENE) 09:30:05 435.910
CUBEBUG 2 23 Oct 09:28:42 09:32:54 47° 282° (WNW) 09:36:59 437.445
ZACube-1 23 Oct 09:31:39 09:35:28 35° 101° (E) 09:39:16 437.345
SRMSAT 23 Oct 09:34:54 09:36:55 12° 352° (N) 09:38:55 437.500
CUTE 1.7 + AOD 2 23 Oct 09:35:00 09:37:53 18° 281° (WNW) 09:40:48 437.475
SEEDS 23 Oct 09:35:32 09:39:16 32° 281° (W) 09:43:01 437.485
STRAND 1 23 Oct 09:36:30 09:41:17 41° 258° (WSW) 09:46:05 437.568
AAUSAT CUBESAT 2 23 Oct 09:50:06 09:54:09 58° 282° (WNW) 09:58:16 437.432
YUBILEINY 23 Oct 09:53:04 10:01:28 53° 93° (E) 10:09:49 435.215
UWE-3 23 Oct 10:00:49 10:04:39 33° 282° (WNW) 10:08:27 435.000/436.395/437.385
Oscar 11 23 Oct 10:02:46 10:06:57 55° 101° (ESE) 10:11:11 .
BEESAT 3 23 Oct 10:25:42 10:27:42 14° 112° (ESE) 10:29:44 437.485
AO-73 23 Oct 10:44:25 10:47:34 21° 282° (WNW) 10:50:43 145.935
JUGNU 23 Oct 10:45:03 10:48:53 18° 14° (NNE) 10:52:41 437.505
DELFI C3 23 Oct 10:50:39 10:54:17 35° 101° (ESE) 10:57:57 145.870
RS-15 23 Oct 10:50:48 10:58:48 22° 67° (ENE) 11:06:32 29.354- 29.394
EO-88 23 Oct 10:51:58 10:53:50 14° 102° (ESE) 10:55:41 145.990 - 145.960
Max Valier Satellite 23 Oct 11:07:09 11:10:32 38° 101° (ESE) 11:13:57 145.860
FO-29 23 Oct 11:08:37 11:13:26 37° 257° (WSW) 11:18:11 435.910
UNISAT 6 23 Oct 11:28:19 11:32:51 82° 77° (ENE) 11:37:28 437.425
PRISM 23 Oct 11:38:30 11:42:11 34° 78° (ENE) 11:45:50 437.425
AO-85 23 Oct 11:42:09 11:45:04 19° 113° (ESE) 11:47:52 145.980
TIGRISAT 23 Oct 11:42:15 11:46:46 72° 259° (WSW) 11:51:22 435.000
BEESAT 2 23 Oct 11:51:49 11:55:36 49° 111° (ESE) 11:59:25 435.950
YUBILEINY 23 Oct 11:52:27 11:57:51 18° 273° (W) 12:03:17 435.215
BEESAT 3 23 Oct 12:02:05 12:04:59 20° 292° (WNW) 12:07:54 437.485
EO-88 23 Oct 12:25:01 12:27:12 15° 281° (W) 12:29:23 145.990 - 145.960
ESTCUBE 1 23 Oct 12:32:27 12:36:09 26° 102° (ESE) 12:39:53 437.505/2401.250
JUGNU 23 Oct 12:32:46 12:38:15 41° 20° (NNE) 12:43:44 437.505
AIST 2D 23 Oct 12:45:51 12:49:21 62° 79° (E) 12:52:49 435.315
RS-15 23 Oct 12:59:54 13:10:52 60° 249° (WSW) 13:21:31 29.354- 29.394
LO-87 23 Oct 13:03:16 13:06:45 55° 281° (WNW) 13:10:16 145.935 - 145.965
NO-84 23 Oct 13:08:10 13:11:19 58° 58° (ENE) 13:14:16 435.350 FM
SRMSAT 23 Oct 13:14:06 13:17:29 15° 13° (NNE) 13:20:52 437.500
AO-85 23 Oct 13:23:01 13:25:09 14° 291° (WNW) 13:27:15 145.980
EO-79 23 Oct 13:23:10 13:27:20 55° 78° (ENE) 13:31:28 145.935-145.965
POLYITAN 1 23 Oct 13:28:43 13:32:58 68° 78° (ENE) 13:37:12 437.675
VELOX 1 23 Oct 13:44:43 13:48:24 26° 102° (ESE) 13:52:06 145.980
NANOSAT C BR1 23 Oct 13:49:12 13:53:24 69° 258° (WSW) 13:57:37 145.865
QB50P2 23 Oct 13:49:21 13:53:29 50° 259° (WSW) 13:57:36 145.880/145.840
BUGSAT 1 23 Oct 13:54:38 13:57:27 18° 78° (ENE) 14:00:16 437.445
DUCHIFAT 1 23 Oct 13:58:09 14:02:19 60° 258° (WSW) 14:06:28 145.980
ESTCUBE 1 23 Oct 14:10:20 14:12:41 14° 282° (WNW) 14:15:02 437.505/2401.250
SPROUT 23 Oct 14:11:03 14:15:18 76° 280° (W) 14:19:33 437.525
JUGNU 23 Oct 14:21:28 14:27:18 71° 201° (SSW) 14:33:09 437.505
M-CUBED/EXP-1 PRIME 23 Oct 14:28:50 14:29:59 11° 76° (ENE) 14:31:06 437.505
50 SAT 23 Oct 14:33:18 14:35:49 20° 102° (ESE) 14:38:21 437.505
DX 1 23 Oct 14:40:55 14:44:31 25° 102° (ESE) 14:48:07 434.975-435.025
Gurwin Techsat 1B 23 Oct 14:42:09 14:46:14 23° 77° (ENE) 14:50:18 435.225
UKube-1 23 Oct 14:58:17 15:01:47 24° 103° (ESE) 15:05:17 .
SRMSAT 23 Oct 15:01:50 15:07:10 34° 19° (NNE) 15:12:31 437.500
VELOX 1 23 Oct 15:22:21 15:24:34 14° 282° (WNW) 15:26:49 145.980
Oscar 19 23 Oct 15:23:28 15:28:38 68° 258° (WSW) 15:33:46 437.125/150
BUGSAT 1 23 Oct 15:29:52 15:32:32 17° 258° (WSW) 15:35:12 437.445
BEESAT 23 Oct 15:59:25 16:01:13 12° 103° (ESE) 16:03:01 436.000
M-CUBED/EXP-1 PRIME 23 Oct 16:01:30 16:04:12 19° 252° (WSW) 16:06:47 437.505
JUGNU 23 Oct 16:11:34 16:16:27 27° 198° (SSW) 16:21:23 437.505
DX 1 23 Oct 16:18:15 16:20:25 14° 282° (WNW) 16:22:35 434.975-435.025
MOZHAYETS 4 23 Oct 16:21:08 16:25:01 28° 102° (ESE) 16:28:56
Gurwin Techsat 1B 23 Oct 16:21:47 16:25:54 23° 257° (WSW) 16:30:01 435.225
UKube-1 23 Oct 16:35:21 16:37:31 14° 282° (WNW) 16:39:42 .
SRMSAT 23 Oct 16:50:26 16:56:27 89° 198° (SSW) 17:02:29 437.500
SO-50 23 Oct 16:53:32 16:55:33 13° 68° (ENE) 16:57:35 436.795
AO-7 23 Oct 16:53:49 17:02:03 64° 74° (ENE) 17:10:12 .
ITUPSAT 1 23 Oct 17:20:52 17:25:28 52° 282° (WNW) 17:30:06 437.325
BEESAT 23 Oct 17:34:27 17:38:41 33° 283° (WNW) 17:42:58 436.000
ITAMSAT 1 23 Oct 17:42:34 17:47:34 50° 257° (WSW) 17:52:34 435.822/435.867
MOZHAYETS 4 23 Oct 17:59:54 18:01:54 13° 282° (WNW) 18:03:54
JUGNU 23 Oct 18:03:26 18:06:07 13° 190° (S) 18:08:50 437.505
CUBESAT XI-V 23 Oct 18:17:29 18:21:56 50° 282° (WNW) 18:26:27 437.345
SO-50 23 Oct 18:31:31 18:35:45 33° 248° (WSW) 18:40:03 436.795
SRMSAT 23 Oct 18:40:22 18:45:44 33° 199° (SSW) 18:51:07 437.500
DOVE 4 23 Oct 18:46:43 18:50:51 79° 79° (E) 18:54:59 437.250
AO-7 23 Oct 18:49:48 18:54:22 16° 253° (WSW) 18:58:55 .
nSIGHT-1 23 Oct 18:53:39 18:56:10 21° 54° (NE) 18:58:42 .
LilacSat-2 23 Oct 18:57:04 18:59:23 15° 79° (E) 19:01:41 437.200
XW-2D 23 Oct 18:59:41 19:02:03 16° 79° (E) 19:04:25 145.860 - 145.880
KKS-1 23 Oct 19:00:07 19:04:33 65° 282° (WNW) 19:08:59 437.445
XW-2B 23 Oct 19:12:30 19:15:37 24° 79° (E) 19:18:42 145.730 - 145.750
PCSat 23 Oct 19:13:28 19:18:29 40° 71° (ENE) 19:23:31 145.827
STARS 23 Oct 19:23:13 19:27:37 80° 101° (E) 19:32:01 437.465
ISS 23 Oct 19:34:26 19:37:42 80° 55° (NE) 19:40:59 437.550
XW-2C 23 Oct 19:35:16 19:39:03 59° 79° (E) 19:42:48 145.795 - 145.815
CUTE 1.7 + AOD 2 23 Oct 20:05:25 20:08:39 21° 79° (ENE) 20:11:50 437.475
CUBEBUG 2 23 Oct 20:07:07 20:08:29 11° 77° (ENE) 20:09:50 437.445
SEEDS 23 Oct 20:07:50 20:09:02 11° 79° (ENE) 20:10:13 437.485
KAITUO 1B 23 Oct 20:09:18 20:13:00 54° 259° (W) 20:16:39 145.475/437.950
CUTE-I 23 Oct 20:15:38 20:20:51 60° 257° (WSW) 20:26:05 437.470
XW-2F 23 Oct 20:17:26 20:20:46 29° 259° (WSW) 20:24:05 145.980 - 146.000
NUDT-PHONESAT 23 Oct 20:17:47 20:21:20 41° 259° (WSW) 20:24:52 437.300
STRAND 1 23 Oct 20:30:31 20:34:55 29° 103° (ESE) 20:39:19 437.568
LilacSat-2 23 Oct 20:30:57 20:33:22 16° 258° (WSW) 20:35:46 437.200
nSIGHT-1 23 Oct 20:31:27 20:32:15 11° 234° (SW) 20:33:03 .
O/OREOS (USA 219) 23 Oct 20:31:38 20:36:08 76° 284° (WNW) 20:40:39 437.305
SRMSAT 23 Oct 20:32:01 20:35:28 15° 192° (SSW) 20:38:55 437.500
XW-2D 23 Oct 20:33:40 20:35:57 15° 258° (WSW) 20:38:13 145.860 - 145.880
UWE-3 23 Oct 20:36:42 20:39:16 15° 78° (ENE) 20:41:51 435.000/436.395/437.385
HO-68 23 Oct 20:48:47 20:55:57 84° 76° (ENE) 21:03:07 435.675
XW-2A 23 Oct 20:57:34 21:00:34 28° 79° (E) 21:03:33 145.665 - 145.685
PCSat 23 Oct 20:59:14 21:01:37 13° 250° (WSW) 21:04:01 145.827
FO-29 23 Oct 20:59:40 21:01:13 11° 104° (ESE) 21:02:45 435.910
AO-73 23 Oct 21:17:25 21:20:50 21° 78° (ENE) 21:24:15 145.935
ZACube-1 23 Oct 21:40:37 21:45:03 53° 78° (ENE) 21:49:29 437.345
CUBEBUG 2 23 Oct 21:40:42 21:44:45 33° 259° (W) 21:48:55 437.445
SEEDS 23 Oct 21:40:53 21:44:26 27° 258° (WSW) 21:47:58 437.485
CUTE 1.7 + AOD 2 23 Oct 21:41:45 21:44:11 15° 258° (WSW) 21:46:36 437.475
JUGNU 23 Oct 21:43:31 21:46:26 14° 169° (S) 21:49:21 437.505
AAUSAT CUBESAT 2 23 Oct 21:53:33 21:57:34 50° 258° (WSW) 22:01:32 437.432
STRAND 1 23 Oct 22:10:39 22:13:49 17° 283° (WNW) 22:17:00 437.568
Oscar 11 23 Oct 22:11:20 22:15:40 75° 80° (E) 22:20:00 .
UWE-3 23 Oct 22:11:39 22:15:25 26° 259° (W) 22:19:13 435.000/436.395/437.385
BEESAT 3 23 Oct 22:17:22 22:19:10 13° 68° (ENE) 22:20:57 437.485
SRMSAT 23 Oct 22:25:33 22:25:43 10° 182° (S) 22:25:54 437.500
